Погода в Савинском

Россия / Архангельская область     62°55′55″N   40°08′16″E
темп.,
°C
ветер,
м/с
пор.,
м/с
влажн.,
%
обл.,
%
осадки,
мм/ч
давл.,
гПа
погр.,
м
10 апреля, сб
сб1000:00+1ю61681100 0.0 1012912
03:00+1ю71580100 0.0 1011971
06:00+1ю71589100 0.0 1011973
09:00+2ююз61595100 0.3 10121002
12:00+3ююз61486100 0.1 10131215
15:00+4ююз61382100 0.1 10131383
18:00+5ю61482100 0.0 10131140
21:00+4ю71585100 0.0 10121164
11 апреля, вс
вс1100:00+5ююз71681100 0.0 10101429
03:00+1юз51288100 2.3 1013972
06:00+1юз6137884 0.0 10151233
09:00+1юз5128056 0.0 1018965
12:00+6юз615661 0.0 10181972
15:00+6зюз717645 0.3 10202483
18:00+4зюз613685 0.5 10231244
21:00+3зюз513785 0.5 1026861
12 апреля, пн
пн1200:00+2зюз4128220 0.0 1028584
03:000юз31189100 0.0 1031342
06:000ююз389016 0.0 1031254
09:00+4ююз376922 0.0 1032433
12:00+8ююз465126 0.0 10311135
15:00+9ю3748100 0.0 10291410
18:00+8ю41176100 0.0 1027687
21:00+7ююз4149060 0.0 1026536
13 апреля, вт
вт1300:00+7ююз4139291 0.0 1026422
03:00+6ююз4129097 0.0 1025355
06:00+5ю299499 0.0 1023215
09:00+7ю3983100 0.0 1022419
12:00+6ю3997100 2.3 1020406
15:00+6ююз3898100 3.3 1019555
18:00+7юз3789100 0.0 1019485
21:00+5ююз279543 0.0 1020127
14 апреля, ср
ср1400:00+4ююз269715 0.0 1019114
03:00+3ююз259717 0.0 1019104
06:00+3ююз259717 0.0 1019108
09:00+8ююз258358 0.0 1018276
12:00+12ю466860 0.0 1016781
15:00+9ю379297 0.1 1015428
18:00+8ююз31098100 0.9 1012442
21:00+8юз41198100 1.1 1012507